Overview Statistics Trail Chart Weather Telemetry Raw packets
 

This is the latest recevied weather packets stored in our database for station/object LU3HGB-WX. If no packets are shown the sender has not sent any weather packets the latest 10 day(s).

<< 23 24 25 26 27 28 29 >>
Time Temp. Humidity Pressure Rain* Wind** Luminosity Snow
1788523360 8.89° C 46% 1021 hPa 0 mm - 197 W/m² -
1788523060 7.78° C 47% 1021 hPa 0 mm - 216 W/m² -
1788522760 6.67° C 55% 1021 hPa 0 mm - 258 W/m² -
1788522460 5.56° C 63% 1021 hPa 0 mm - 244 W/m² -
1788522160 4.44° C 69% 1021 hPa 0 mm - 202 W/m² -
1788521859 3.89° C 73% 1021 hPa 0 mm - 114 W/m² -
1788521559 3.89° C 79% 1021 hPa 0 mm - 94 W/m² -
1788521259 3.33° C 78% 1021 hPa 0 mm - 83 W/m² -
1788520959 2.78° C 78% 1021 hPa 0 mm - 74 W/m² -
1788520659 2.78° C 78% 1021 hPa 0 mm - 61 W/m² -
1788520360 2.22° C 79% 1021 hPa 0 mm - 51 W/m² -
1788520059 2.22° C 78% 1021 hPa 0 mm - 39 W/m² -
1788519759 1.67° C 78% 1021 hPa 0 mm - 33 W/m² -
1788519460 1.67° C 75% 1021 hPa 0 mm - 26 W/m² -
1788519159 1.67° C 76% 1021 hPa 0 mm - 22 W/m² -
1788518859 1.67° C 76% 1021 hPa 0 mm - 15 W/m² -
1788518559 2.22° C 75% 1021 hPa 0 mm - 10 W/m² -
1788518259 2.22° C 74% 1021 hPa 0 mm - 7 W/m² -
1788517960 2.22° C 73% 1021 hPa 0 mm - 3 W/m² -
1788517660 2.22° C 73% 1021 hPa 0 mm - 2 W/m² -
1788517360 2.22° C 74% 1021 hPa 0 mm - 1 W/m² -
1788517059 2.22° C 73% 1021 hPa 0 mm - 0 W/m² -
1788516770 2.22° C 72% 1021 hPa 0 mm - 0 W/m² -
1788516459 2.22° C 69% 1021 hPa 0 mm - 0 W/m² -
1788516159 1.67° C 70% 1021 hPa 0 mm - 0 W/m² -

* Rain latest hour (hover to see other rain measurements)
** Current wind speed in m/s (hover to see current wind gust speed)